�N����,����,����,����,����,�C��,���x,�~����,�S�V����,�ő�u�ԕ���,,,,,
,,,,,,,,,����,����,����,�N��,,
yyyy/mm/dd,hh:mm:ss,(16),16����,m/s,��,%,mm,KW/�u,(16),16����,m/s,Time,,
2015/9/1,1:00:00,12,��,1.6,12.7,99.1,0,0,13,���k��,2.5,8,,
2015/9/1,2:00:00,12,��,1.2,12.7,100,0,0,12,��,2.2,43,,
2015/9/1,3:00:00,12,��,0.7,11.6,100,0,0,12,��,1.9,22,,
2015/9/1,4:00:00,11,���쐼,1.4,11.3,100,0,0,12,��,2.3,20,,
2015/9/1,5:00:00,12,��,1.9,11.3,100,0,0,12,��,2.5,59,,
2015/9/1,6:00:00,12,��,1.7,13.3,100,0,0.05,12,��,2.4,32,,
2015/9/1,7:00:00,12,��,1.7,17.4,99.5,0,0.24,12,��,2.5,15,,
2015/9/1,8:00:00,10,�쐼,1.4,21.3,80.8,0,0.45,12,��,3.1,52,,
2015/9/1,9:00:00,7,��쓌,0.6,24,77.3,0,0.62,10,�쐼,2.5,4,,
2015/9/1,10:00:00,7,��쓌,2.5,23.5,70.2,0,0.76,6,�쓌,5.3,36,,
2015/9/1,11:00:00,7,��쓌,3.2,23.3,70,0,0.87,6,�쓌,4.9,58,,
2015/9/1,12:00:00,6,�쓌,0.9,23.3,70.7,0,0.89,8,��,5.2,16,,
2015/9/1,13:00:00,6,�É�,0,22.9,67.8,0,0.84,8,��,4.6,4,,
2015/9/1,14:00:00,7,�É�,0.1,23.1,70.1,0,0.74,8,��,3,46,,
2015/9/1,15:00:00,8,��,2.2,22.9,69.3,0,0.58,8,��,4,29,,
2015/9/1,16:00:00,9,��쐼,2.3,21.7,72.7,0,0.35,9,��쐼,4,4,,
2015/9/1,17:00:00,7,��쓌,1.8,19.9,82.4,0,0.19,9,��쐼,3.4,0,,
2015/9/1,18:00:00,5,���쓌,0.9,18,91.9,0,0.04,7,��쓌,2.1,17,,
2015/9/1,19:00:00,2,�k��,2.1,16.8,93.9,0,0,2,�k��,3.7,39,,
2015/9/1,20:00:00,2,�k��,1.9,16.5,94.9,0,0,2,�k��,3.3,15,,
2015/9/1,21:00:00,3,���k��,0.6,15.2,96.7,0,0,3,���k��,2.7,14,,
2015/9/1,22:00:00,15,�k�k��,0.8,14.4,98.6,0,0,1,�k�k��,2.5,36,,
2015/9/1,23:00:00,16,�k,0.4,14.2,99.7,0,0,15,�k�k��,1.7,28,,
2015/9/1,0:00:00,1,�k�k��,0.9,16.1,100,0,0,2,�k��,2.5,38,,
2015/9/2,1:00:00,15,�k�k��,0.4,16.3,99.8,0,0,2,�k��,2.4,0,,
2015/9/2,2:00:00,4,��,1.6,17.5,99.9,0,0,2,�k��,3.2,30,,
2015/9/2,3:00:00,3,���k��,0.8,17.5,99.8,0,0,3,���k��,2.5,2,,
2015/9/2,4:00:00,2,�k��,1.3,18,99.6,0,0,3,���k��,2.6,44,,
2015/9/2,5:00:00,2,�k��,0.7,17.7,99.6,0,0,2,�k��,2.5,9,,
2015/9/2,6:00:00,1,�k�k��,1.4,18,99.5,0,0.02,1,�k�k��,2.5,51,,
2015/9/2,7:00:00,14,�k��,0.6,18.4,98.8,0,0.04,1,�k�k��,2.1,2,,
2015/9/2,8:00:00,2,�k��,1.2,18.6,97.3,0,0.08,1,�k�k��,2.1,39,,
2015/9/2,9:00:00,1,�k�k��,1.3,18.5,98.5,0,0.07,1,�k�k��,2.8,9,,
2015/9/2,10:00:00,2,�k��,1.5,18.7,98.7,0.5,0.1,1,�k�k��,3.3,24,,
2015/9/2,11:00:00,3,���k��,2.3,18.7,98.5,1.5,0.1,3,���k��,4.4,57,,
2015/9/2,12:00:00,5,���쓌,2.4,19,99.4,0.5,0.07,3,���k��,4.2,0,,
2015/9/2,13:00:00,6,�쓌,2.7,18.9,99.4,0,0.11,5,���쓌,5.5,41,,
2015/9/2,14:00:00,5,���쓌,3.3,18.7,99.5,0.5,0.09,6,�쓌,6,11,,
2015/9/2,15:00:00,4,��,3.8,19,99.7,4.5,0.05,5,���쓌,5.8,7,,
2015/9/2,16:00:00,4,��,4.3,18.7,99.8,6.5,0.03,4,��,7.3,54,,
2015/9/2,17:00:00,4,��,5.4,18.6,99.8,10.5,0.02,4,��,8.2,56,,
2015/9/2,18:00:00,7,��쓌,2,18.7,99.7,7,0,4,��,7.3,35,,
2015/9/2,19:00:00,1,�k�k��,1.7,18.7,99.6,5,0,12,��,3.2,5,,
2015/9/2,20:00:00,13,���k��,2.6,18.8,99.7,0.5,0,14,�k��,4.8,52,,
2015/9/2,21:00:00,14,�k��,4.2,18.5,99.2,0,0,13,���k��,8.2,44,,
2015/9/2,22:00:00,14,�k��,3.4,18.6,96.4,0,0,15,�k�k��,9,47,,
2015/9/2,23:00:00,14,�k��,1.9,18.6,94.9,0,0,14,�k��,7.4,10,,
2015/9/2,0:00:00,13,���k��,2.9,18.4,95,0,0,14,�k��,5.6,51,,
2015/9/3,1:00:00,14,�k��,2.7,17.9,94.4,0,0,14,�k��,4.6,44,,
2015/9/3,2:00:00,12,��,1.2,15.9,97,0,0,15,�k�k��,3.6,14,,
2015/9/3,3:00:00,7,��쓌,0.9,15.3,99,0,0,9,��쐼,2.8,17,,
2015/9/3,4:00:00,10,�쐼,0.9,15,99.3,0,0,10,�쐼,2.7,20,,
2015/9/3,5:00:00,14,�k��,2.8,17.2,89,0,0,13,���k��,4.6,42,,
2015/9/3,6:00:00,9,��쐼,0.8,18,90.4,0,0.09,13,���k��,5.1,15,,
2015/9/3,7:00:00,13,���k��,1.1,21.1,86.9,0,0.24,13,���k��,3.3,21,,
2015/9/3,8:00:00,8,��,2.4,21.4,82,0,0.45,7,��쓌,4,54,,
2015/9/3,9:00:00,7,��쓌,1.9,21.7,77.3,0,0.45,10,�쐼,3.8,21,,
2015/9/3,10:00:00,6,�쓌,3.2,23,71.8,0,0.77,5,���쓌,4.9,53,,
2015/9/3,11:00:00,4,��,2.3,24.2,70.5,0,0.87,4,��,4.4,37,,
2015/9/3,12:00:00,4,�É�,0,25.9,63.4,0,0.89,4,��,3.6,6,,
2015/9/3,13:00:00,6,�É�,0,24.4,70.3,0,0.85,5,�É�,0,0,,
2015/9/3,14:00:00,6,�É�,0,24.7,62.7,0,0.75,6,�É�,0,0,,
2015/9/3,15:00:00,4,�É�,0,25.2,63,0,0.62,4,��,0.9,58,,
2015/9/3,16:00:00,9,��쐼,1.3,25,70.5,0,0.45,10,�쐼,4.6,59,,
2015/9/3,17:00:00,10,�쐼,2,23,73.3,0,0.21,11,���쐼,6.9,22,,
2015/9/3,18:00:00,10,�쐼,2.7,20.9,78.9,0,0.06,9,��쐼,4,53,,
2015/9/3,19:00:00,11,���쐼,2.3,19.6,84.1,0,0,10,�쐼,4.7,4,,
2015/9/3,20:00:00,11,���쐼,2.4,20.6,79.8,0,0,11,���쐼,5.6,39,,
2015/9/3,21:00:00,11,���쐼,1.6,18,93.5,0,0,12,��,3,0,,
2015/9/3,22:00:00,13,���k��,1.3,17.8,93.8,0,0,8,��,2.9,14,,
2015/9/3,23:00:00,10,�쐼,0.5,16.5,96.8,0,0,6,�쓌,2.5,24,,
2015/9/3,0:00:00,14,�k��,0.4,16.3,97.9,0,0,11,���쐼,1.6,23,,
2015/9/4,1:00:00,12,��,0.9,16.7,98.1,0,0,6,�쓌,3.7,59,,
2015/9/4,2:00:00,3,���k��,1.3,16.9,97.8,0,0,3,���k��,3.5,52,,
2015/9/4,3:00:00,12,��,0.5,16.6,97.4,0,0,12,��,2.4,35,,
2015/9/4,4:00:00,13,���k��,0.6,16.5,97.5,0,0,12,��,3,6,,
2015/9/4,5:00:00,12,��,0.8,16.7,98.2,0,0,1,�k�k��,2.8,35,,
2015/9/4,6:00:00,7,��쓌,1.1,18.7,94.9,0,0.01,8,��,3.3,25,,
2015/9/4,7:00:00,8,��,1.7,19.4,96,0,0.06,10,�쐼,4.2,31,,
2015/9/4,8:00:00,8,��,3.5,20.6,91.1,0,0.19,9,��쐼,7.2,16,,
2015/9/4,9:00:00,8,��,2.5,21.4,88.9,0,0.27,8,��,6,14,,
2015/9/4,10:00:00,6,�쓌,2.8,23,80.2,0,0.46,8,��,6.3,7,,
2015/9/4,11:00:00,8,��,4.4,22.1,81,0,0.71,8,��,9.2,48,,
2015/9/4,12:00:00,9,��쐼,3.3,19.7,96.5,0,0.2,9,��쐼,9.4,15,,
2015/9/4,13:00:00,9,��쐼,2.6,20.7,95.6,0.5,0.36,10,�쐼,7.8,24,,
2015/9/4,14:00:00,9,��쐼,2.3,20.5,96.1,0,0.3,9,��쐼,6.5,14,,
2015/9/4,15:00:00,13,���k��,2.3,20.9,91.6,0,0.37,10,�쐼,6.1,6,,
2015/9/4,16:00:00,16,�k,0.9,18.5,95,1.5,0.06,15,�k�k��,6.4,27,,
2015/9/4,17:00:00,11,���쐼,0.9,19.4,95.9,0,0.1,13,���k��,2.2,9,,
2015/9/4,18:00:00,12,��,2.3,17.3,98.1,0,0.04,12,��,3,59,,
2015/9/4,19:00:00,12,��,2.5,16.7,99,0,0,12,��,3.5,1,,
2015/9/4,20:00:00,3,���k��,0.8,15.1,99.2,0,0,12,��,2.6,12,,
2015/9/4,21:00:00,1,�k�k��,1.1,14.3,99.8,0,0,1,�k�k��,2.9,36,,
2015/9/4,22:00:00,13,���k��,1.1,13.9,100,0,0,12,��,2.8,44,,
2015/9/4,23:00:00,14,�k��,0.4,13.3,100,0.5,0,13,���k��,2.4,4,,
2015/9/4,0:00:00,13,���k��,1.6,13.5,100,0,0,10,�쐼,2.8,4,,
2015/9/5,1:00:00,13,���k��,2.5,13.9,100,0,0,13,���k��,4.2,56,,
2015/9/5,2:00:00,13,���k��,2.4,13.3,100,0,0,13,���k��,4.1,59,,
2015/9/5,3:00:00,12,��,3.4,11.6,99.5,0,0,14,�k��,4.8,17,,
2015/9/5,4:00:00,13,���k��,2.5,11.1,99,0,0,13,���k��,4.8,22,,
2015/9/5,5:00:00,13,���k��,2.1,10.7,100,0,0,4,��,3.6,59,,
2015/9/5,6:00:00,12,��,4.2,12.4,98.9,0,0.08,12,��,5,56,,
2015/9/5,7:00:00,12,��,2.7,15.5,89.3,0,0.27,13,���k��,4.9,39,,
2015/9/5,8:00:00,13,���k��,2.3,18.6,77.1,0,0.48,14,�k��,5,46,,
2015/9/5,9:00:00,16,�k,0.5,21.5,67.3,0,0.65,14,�k��,3.3,17,,
2015/9/5,10:00:00,7,��쓌,2.9,20.5,74.3,0,0.78,6,�쓌,5.2,59,,
2015/9/5,11:00:00,7,��쓌,2.7,20,66.9,0,0.74,8,��,6,11,,
2015/9/5,12:00:00,8,��,3.3,21.1,62.5,0,0.8,7,��쓌,5.5,16,,
2015/9/5,13:00:00,7,��쓌,3.4,20.6,60.5,0,0.89,6,�쓌,6.5,44,,
2015/9/5,14:00:00,6,�쓌,3.1,21.3,68.1,0,0.77,6,�쓌,7.2,14,,
2015/9/5,15:00:00,5,���쓌,2,22.2,68.2,0,0.7,5,���쓌,4.2,7,,
2015/9/5,16:00:00,4,��,1.2,21.8,66.6,0,0.42,3,���k��,5,5,,
2015/9/5,17:00:00,12,�É�,0,19.9,79.5,0,0.23,4,��,2.2,5,,
2015/9/5,18:00:00,13,���k��,0.8,15.8,90.8,0,0.04,13,���k��,2.5,46,,
2015/9/5,19:00:00,16,�k,1.4,14.2,91.9,0,0,1,�k�k��,3.3,54,,
2015/9/5,20:00:00,12,��,2.2,13.1,97.4,0,0,12,��,2.7,54,,
2015/9/5,21:00:00,12,��,1.5,12.4,99,0,0,13,���k��,2.5,45,,
2015/9/5,22:00:00,14,�É�,0.2,11.3,98.5,0,0,2,�k��,2.7,21,,
2015/9/5,23:00:00,13,���k��,1.8,10.4,99.6,0,0,12,��,2.3,55,,
2015/9/5,0:00:00,13,���k��,1.7,10.5,99.9,0,0,12,��,2.5,38,,
2015/9/6,1:00:00,12,��,1.9,10.8,99.4,0,0,13,���k��,3.3,23,,
2015/9/6,2:00:00,13,���k��,1.8,11.4,99.1,0,0,13,���k��,3.3,6,,
2015/9/6,3:00:00,12,��,1.9,10.9,98.7,0,0,12,��,3.1,13,,
2015/9/6,4:00:00,13,���k��,1.2,11.5,98.8,0,0,13,���k��,3,5,,
2015/9/6,5:00:00,13,���k��,1.7,11.4,98.8,0,0,13,���k��,2.5,41,,
2015/9/6,6:00:00,14,�k��,1.5,12.4,96.4,0,0.03,13,���k��,3.5,39,,
2015/9/6,7:00:00,14,�k��,1.7,13.7,92.6,0,0.12,14,�k��,3.4,3,,
2015/9/6,8:00:00,13,���k��,2.1,15.9,86.6,0,0.34,14,�k��,3.3,45,,
2015/9/6,9:00:00,14,�k��,0.8,17.3,83.8,0,0.36,13,���k��,3.4,18,,
2015/9/6,10:00:00,3,���k��,0.7,17.8,76.8,0,0.41,2,�k��,2.6,10,,
2015/9/6,11:00:00,3,���k��,1.9,18.4,77,0,0.34,2,�k��,3.5,54,,
2015/9/6,12:00:00,4,��,3,18,74.6,0,0.3,5,���쓌,4.2,58,,
2015/9/6,13:00:00,4,��,3.8,17.4,79.5,0,0.37,5,���쓌,5.7,20,,
2015/9/6,14:00:00,3,���k��,3.3,16.9,82.4,0,0.21,4,��,5.5,25,,
2015/9/6,15:00:00,4,��,2.4,15.4,93.5,0.5,0.1,3,���k��,5.5,1,,
2015/9/6,16:00:00,15,�k�k��,1,15.1,98.1,1,0.03,2,�k��,3.3,38,,
2015/9/6,17:00:00,16,�k,2,15,98.7,0.5,0.03,15,�k�k��,3.4,56,,
2015/9/6,18:00:00,13,���k��,1.1,14.9,98.9,0,0.01,1,�k�k��,3.5,2,,
2015/9/6,19:00:00,14,�k��,1.1,14.8,99.1,0.5,0,14,�k��,2.5,27,,
2015/9/6,20:00:00,7,��쓌,0.6,15.3,99.4,1.5,0,6,�쓌,2.2,16,,
2015/9/6,21:00:00,1,�É�,0,15.2,99,2,0,5,���쓌,2.6,2,,
2015/9/6,22:00:00,1,�k�k��,0.6,15.2,99.6,1.5,0,1,�k�k��,1.2,59,,
2015/9/6,23:00:00,14,�k��,0.7,15.1,99.8,0.5,0,14,�k��,1.5,44,,
2015/9/6,0:00:00,14,�k��,1.2,15.1,99.8,0,0,14,�k��,1.9,55,,
2015/9/7,1:00:00,14,�k��,1.6,15.1,99.8,0,0,14,�k��,2.5,59,,
2015/9/7,2:00:00,14,�k��,1.7,14.9,99.8,1,0,14,�k��,2.8,57,,
2015/9/7,3:00:00,15,�k�k��,0.8,14.9,99.8,0.5,0,14,�k��,2.6,2,,
2015/9/7,4:00:00,16,�k,1.1,14.7,99.5,0,0,16,�k,2.4,11,,
2015/9/7,5:00:00,16,�k,1.2,14.7,99.3,0,0,1,�k�k��,2.9,42,,
2015/9/7,6:00:00,14,�k��,1.9,14.6,99.4,0,0.01,14,�k��,3.5,56,,
2015/9/7,7:00:00,14,�k��,1.2,14.8,99.6,2.5,0.02,14,�k��,3.4,5,,
2015/9/7,8:00:00,14,�k��,2.6,16.4,97.8,0,0.24,14,�k��,5.1,52,,
2015/9/7,9:00:00,16,�k,1.4,17.5,91.3,0,0.35,13,���k��,3.8,15,,
2015/9/7,10:00:00,4,��,4.1,19.4,84.6,0,0.54,4,��,5.7,55,,
2015/9/7,11:00:00,4,��,3.7,19.7,77.6,0,0.92,5,���쓌,7.1,24,,
2015/9/7,12:00:00,4,��,4.2,19.9,76.4,0,0.9,4,��,6.3,49,,
2015/9/7,13:00:00,5,���쓌,4.1,19.3,75,0,0.85,5,���쓌,6.4,12,,
2015/9/7,14:00:00,5,���쓌,3.7,18.3,76.1,0,0.76,5,���쓌,5.7,19,,
2015/9/7,15:00:00,6,�쓌,3.1,18,76.1,0,0.61,5,���쓌,5.4,10,,
2015/9/7,16:00:00,7,��쓌,2.1,17.4,80.2,0,0.41,6,�쓌,4.9,3,,
2015/9/7,17:00:00,7,��쓌,1.3,16.7,86.5,0,0.19,7,��쓌,3.2,0,,
2015/9/7,18:00:00,14,�É�,0,14.4,96.5,0,0.04,8,��,1.4,2,,
2015/9/7,19:00:00,13,���k��,0.9,15.4,97.9,0,0,13,���k��,1.6,44,,
2015/9/7,20:00:00,1,�k�k��,0.7,15.7,96.9,0,0,13,���k��,1.5,1,,
2015/9/7,21:00:00,3,���k��,1.7,15.6,92.5,0,0,3,���k��,3,49,,
2015/9/7,22:00:00,1,�k�k��,1.8,14.5,95.6,0,0,2,�k��,2.6,49,,
2015/9/7,23:00:00,2,�k��,2.1,14.8,93.8,0,0,2,�k��,3.2,54,,
2015/9/7,0:00:00,2,�k��,1.7,13.1,97,0,0,2,�k��,3.2,6,,
2015/9/8,1:00:00,13,���k��,0.4,10.8,99.1,0,0,2,�k��,2.4,2,,
2015/9/8,2:00:00,13,���k��,0.7,10.3,99.8,0,0,15,�k�k��,1.5,41,,
2015/9/8,3:00:00,14,�k��,1,12,100,0,0,13,���k��,1.8,18,,
2015/9/8,4:00:00,14,�k��,0.5,11.2,99.3,0,0,15,�k�k��,2.1,34,,
2015/9/8,5:00:00,16,�k,0.6,12.2,100,0,0,1,�k�k��,1.4,57,,
2015/9/8,6:00:00,14,�É�,0,13.2,98.2,0,0.03,1,�k�k��,2.4,27,,
2015/9/8,7:00:00,1,�k�k��,1.1,14.1,96,0,0.1,1,�k�k��,1.8,54,,
2015/9/8,8:00:00,2,�k��,1.7,15.1,92.7,0,0.16,2,�k��,2.5,54,,
2015/9/8,9:00:00,4,��,2.9,15.7,88.2,0,0.25,4,��,4.4,52,,
2015/9/8,10:00:00,3,���k��,2.9,15.7,89,0,0.19,4,��,4.8,18,,
2015/9/8,11:00:00,4,��,3.1,15.8,87.9,0,0.22,4,��,4.8,51,,
2015/9/8,12:00:00,4,��,2.5,16.5,85.4,0,0.27,4,��,5,39,,
2015/9/8,13:00:00,4,��,2.5,16.7,85.6,0,0.27,4,��,4.8,12,,
2015/9/8,14:00:00,4,��,2,16.8,82.1,0,0.34,5,���쓌,4.5,15,,
2015/9/8,15:00:00,5,���쓌,1.9,16.8,83.2,0,0.35,4,��,4,18,,
2015/9/8,16:00:00,5,���쓌,1.9,16.1,85.3,0,0.27,6,�쓌,3.3,14,,
2015/9/8,17:00:00,5,���쓌,1.1,15.4,89.3,0,0.12,5,���쓌,2.9,3,,
2015/9/8,18:00:00,15,�É�,0.2,13.5,96,0,0.02,1,�k�k��,1.2,42,,
2015/9/8,19:00:00,12,��,0.5,12.4,98.7,0,0,15,�k�k��,1.1,37,,
2015/9/8,20:00:00,12,��,1,13.1,99.6,0,0,12,��,1.5,0,,
2015/9/8,21:00:00,14,�k��,1.1,13.6,99.1,0,0,12,��,2,1,,
2015/9/8,22:00:00,14,�k��,1.8,13.9,96,0,0,13,���k��,2.7,50,,
2015/9/8,23:00:00,14,�k��,1.2,12.5,97.9,0,0,1,�k�k��,2.9,22,,
2015/9/8,0:00:00,13,���k��,1.4,11.7,98.9,0,0,14,�k��,2.2,45,,
2015/9/9,1:00:00,12,��,0.7,12.4,99.6,0,0,14,�k��,1.6,21,,
2015/9/9,2:00:00,14,�k��,0.8,12.6,99.6,0,0,14,�k��,1.9,33,,
2015/9/9,3:00:00,14,�k��,1.8,12.6,99.4,0,0,14,�k��,2.5,53,,
2015/9/9,4:00:00,13,���k��,1.8,12.4,99.6,0,0,14,�k��,3,21,,
2015/9/9,5:00:00,13,���k��,2.5,12.6,99.7,0,0,13,���k��,3.8,58,,
2015/9/9,6:00:00,14,�k��,1.6,13,99.1,0,0.02,13,���k��,3.4,2,,
2015/9/9,7:00:00,14,�k��,1.7,14,97.5,0,0.06,13,���k��,4,29,,
2015/9/9,8:00:00,14,�k��,1.6,15.1,93.2,0,0.14,14,�k��,3.6,0,,
2015/9/9,9:00:00,3,���k��,3.1,15.6,89.6,0,0.13,3,���k��,4.8,57,,
2015/9/9,10:00:00,3,���k��,3.5,15.6,89.4,0,0.2,3,���k��,5.8,47,,
2015/9/9,11:00:00,3,���k��,2.8,15.9,89,0,0.12,3,���k��,5.2,48,,
2015/9/9,12:00:00,4,��,3.4,17.6,84.1,0,0.37,3,���k��,5.5,36,,
2015/9/9,13:00:00,5,���쓌,3.5,17.3,84.6,0,0.42,5,���쓌,4.9,14,,
2015/9/9,14:00:00,2,�k��,1.7,17,84.9,0,0.29,4,��,5,29,,
2015/9/9,15:00:00,3,���k��,2.8,16.7,87.2,0,0.24,3,���k��,6.2,16,,
2015/9/9,16:00:00,2,�k��,2.1,16.3,88.6,0,0.15,2,�k��,5.4,38,,
2015/9/9,17:00:00,2,�k��,1.5,15.6,91.7,0,0.04,3,���k��,4.6,47,,
2015/9/9,18:00:00,2,�k��,2,15.1,93.9,0,0.01,2,�k��,3.4,23,,
2015/9/9,19:00:00,2,�k��,1.5,15.1,93.7,0,0,1,�k�k��,3.6,1,,
2015/9/9,20:00:00,1,�k�k��,2,14.9,94.5,0,0,2,�k��,3.8,58,,
2015/9/9,21:00:00,2,�k��,2.8,14.8,90.1,0,0,1,�k�k��,4.8,47,,
2015/9/9,22:00:00,1,�k�k��,2.4,14.3,88.8,0,0,1,�k�k��,5.3,51,,
2015/9/9,23:00:00,2,�k��,2.1,14.1,88.8,0,0,1,�k�k��,4.4,23,,
2015/9/9,0:00:00,1,�k�k��,2.1,13.9,90.6,0,0,1,�k�k��,3.8,57,,
2015/9/10,1:00:00,1,�k�k��,3.4,13.6,91.4,0,0,1,�k�k��,5.4,59,,
2015/9/10,2:00:00,16,�k,1.7,13,96.8,0,0,2,�k��,5.5,2,,
2015/9/10,3:00:00,1,�k�k��,2.5,12.8,98.4,0,0,1,�k�k��,4.9,51,,
2015/9/10,4:00:00,15,�k�k��,1.9,12.7,98.4,0.5,0,15,�k�k��,4.6,20,,
2015/9/10,5:00:00,16,�k,2.1,12.7,98.4,0.5,0,1,�k�k��,4.7,36,,
2015/9/10,6:00:00,16,�k,2.4,12.8,98.2,0.5,0.02,15,�k�k��,5.1,40,,
2015/9/10,7:00:00,16,�k,2.1,13.1,98.7,0.5,0.05,15,�k�k��,4.5,58,,
2015/9/10,8:00:00,1,�k�k��,2.6,13.4,98.5,2.5,0.1,1,�k�k��,5.3,50,,
2015/9/10,9:00:00,16,�k,2.1,13.7,98.6,1.5,0.09,1,�k�k��,4.8,8,,
2015/9/10,10:00:00,1,�k�k��,2.7,14.2,98.6,1.5,0.14,2,�k��,4.7,55,,
2015/9/10,11:00:00,1,�k�k��,3.5,14.4,98.2,1,0.19,2,�k��,6.3,14,,
2015/9/10,12:00:00,2,�k��,4.1,14.7,98,0.5,0.22,2,�k��,7.4,58,,
2015/9/10,13:00:00,2,�k��,4.3,14.7,98.1,0.5,0.19,2,�k��,7.7,59,,
2015/9/10,14:00:00,2,�k��,4.9,14.7,98.2,0,0.15,2,�k��,9.3,12,,
2015/9/10,15:00:00,3,���k��,5.4,14.8,98.6,0.5,0.07,3,���k��,10.3,23,,
2015/9/10,16:00:00,3,���k��,5.4,14.9,99,0.5,0.05,3,���k��,11,31,,
2015/9/10,17:00:00,3,���k��,5.1,15,99.1,1,0.02,4,��,11.2,6,,
2015/9/10,18:00:00,3,���k��,6.1,15.2,99.3,2,0,3,���k��,9.8,58,,
2015/9/10,19:00:00,3,���k��,4.5,15.4,99.5,1,0,3,���k��,9.5,14,,
2015/9/10,20:00:00,2,�k��,2.9,15.4,99.6,0.5,0,2,�k��,6.8,22,,
2015/9/10,21:00:00,1,�k�k��,1.9,15.4,99.7,3,0,3,���k��,4.7,4,,
2015/9/10,22:00:00,2,�k��,2.9,15.1,99.7,2,0,2,�k��,5.4,53,,
2015/9/10,23:00:00,1,�k�k��,2.3,15.1,99.7,3.5,0,2,�k��,4.3,11,,
2015/9/10,0:00:00,16,�k,2,15,99.8,4.5,0,1,�k�k��,3.3,52,,
2015/9/11,1:00:00,14,�k��,2.3,14.7,99.7,4.5,0,13,���k��,4.2,58,,
2015/9/11,2:00:00,14,�k��,1.4,14.7,99.8,4,0,14,�k��,5.3,0,,
2015/9/11,3:00:00,14,�k��,1.9,14.7,99.8,3,0,14,�k��,3.8,29,,
2015/9/11,4:00:00,1,�k�k��,4.4,15.4,99.9,1.5,0,1,�k�k��,8.4,56,,
2015/9/11,5:00:00,14,�k��,1.9,14.4,99.6,3,0,2,�k��,7.8,7,,
2015/9/11,6:00:00,15,�k�k��,1.9,14.5,99.7,3,0.01,15,�k�k��,5.4,14,,
2015/9/11,7:00:00,15,�k�k��,1.9,14.8,99.6,2,0.04,14,�k��,4.5,8,,
2015/9/11,8:00:00,16,�k,2.2,15.3,99.6,2.5,0.07,15,�k�k��,4.2,33,,
2015/9/11,9:00:00,1,�k�k��,2.5,15.5,99.1,1.5,0.12,1,�k�k��,5.3,42,,
2015/9/11,10:00:00,1,�k�k��,3.5,15.6,98.7,1.5,0.15,1,�k�k��,6.6,57,,
2015/9/11,11:00:00,1,�k�k��,3.6,15.6,98.3,1,0.13,1,�k�k��,7.8,54,,
2015/9/11,12:00:00,16,�k,3,15.5,98.1,0.5,0.13,2,�k��,6.6,2,,
2015/9/11,13:00:00,16,�k,3.1,15.5,96.4,0.5,0.11,15,�k�k��,6.8,50,,
2015/9/11,14:00:00,16,�k,2.7,15.9,96.5,0,0.14,1,�k�k��,7.1,39,,
2015/9/11,15:00:00,14,�k��,3.6,16.4,95.3,0,0.14,14,�k��,8,50,,
2015/9/11,16:00:00,14,�k��,3.8,16.5,93.3,0,0.08,14,�k��,7,39,,
2015/9/11,17:00:00,14,�k��,3,16.6,92.7,0,0.04,14,�k��,8.2,13,,
2015/9/11,18:00:00,14,�k��,3.4,16.7,92.6,0,0.01,14,�k��,6,16,,
2015/9/11,19:00:00,14,�k��,2,16.9,92.9,0,0,14,�k��,6.7,5,,
2015/9/11,20:00:00,13,���k��,2.5,16.7,95.1,0,0,13,���k��,4.2,37,,
2015/9/11,21:00:00,13,���k��,2.4,17.1,93.1,0,0,13,���k��,4.2,0,,
2015/9/11,22:00:00,13,���k��,2.2,17.5,92.5,0,0,14,�k��,5,1,,
2015/9/11,23:00:00,11,���쐼,1.1,16.4,96.2,0,0,13,���k��,4.7,25,,
2015/9/11,0:00:00,12,��,0.5,14.6,97.2,0,0,12,��,5.4,6,,
2015/9/12,1:00:00,9,��쐼,0.4,14,99.4,0,0,13,���k��,2.6,33,,
2015/9/12,2:00:00,13,���k��,1,13.3,99.8,0,0,12,��,2.6,47,,
2015/9/12,3:00:00,11,���쐼,1.3,14,100,0,0,10,�쐼,2.5,55,,
2015/9/12,4:00:00,9,��쐼,2.2,17.2,100,0,0,9,��쐼,4.9,44,,
2015/9/12,5:00:00,8,��,2.3,17.8,97.8,0,0,8,��,6.5,30,,
2015/9/12,6:00:00,8,��,3.6,18.2,97.3,0,0.03,9,��쐼,9.2,23,,
2015/9/12,7:00:00,10,�쐼,2.1,21.1,86.7,0,0.17,10,�쐼,6.1,59,,
2015/9/12,8:00:00,10,�쐼,1.7,23.4,78,0,0.44,8,��,5.4,23,,
2015/9/12,9:00:00,10,�쐼,2.8,25,76.2,0,0.46,10,�쐼,7,40,,
2015/9/12,10:00:00,11,���쐼,6,26.2,65.3,0,0.73,10,�쐼,9.4,49,,
2015/9/12,11:00:00,10,�쐼,8.2,25,63.8,0,0.79,10,�쐼,13,57,,
2015/9/12,12:00:00,11,���쐼,6.1,27.3,53.7,0,0.85,10,�쐼,15.2,33,,
2015/9/12,13:00:00,12,��,6,26.1,51.3,0,0.75,13,���k��,11.7,34,,
2015/9/12,14:00:00,11,���쐼,4.7,25.3,56.3,0,0.67,12,��,11.8,38,,
2015/9/12,15:00:00,11,���쐼,5.8,24,56.2,0,0.46,11,���쐼,9.4,56,,
2015/9/12,16:00:00,10,�쐼,5.1,25.3,53.2,0,0.28,10,�쐼,10,2,,
2015/9/12,17:00:00,10,�쐼,5.2,22.6,59.7,0,0.27,9,��쐼,8.8,28,,
2015/9/12,18:00:00,10,�쐼,6.1,20.7,66.9,0,0.03,10,�쐼,9.8,38,,
2015/9/12,19:00:00,11,���쐼,4.9,20.2,70.4,0,0,11,���쐼,9.8,28,,
2015/9/12,20:00:00,9,��쐼,2.1,20.4,71.2,0,0,11,���쐼,6.1,2,,
2015/9/12,21:00:00,9,��쐼,3,18.9,79.4,0,0,10,�쐼,4.6,53,,
2015/9/12,22:00:00,4,��,2.4,16.7,90.6,0,0,11,���쐼,3.7,33,,
2015/9/12,23:00:00,1,�k�k��,0.3,16.2,94.8,0,0,5,���쓌,2.8,0,,
2015/9/12,0:00:00,2,�k��,0.3,15.9,94.7,0,0,10,�쐼,3.2,12,,
2015/9/13,1:00:00,3,���k��,1.3,16.1,94.8,0,0,7,��쓌,3,22,,
2015/9/13,2:00:00,3,���k��,0.3,16,95.2,0,0,3,���k��,2.2,20,,
2015/9/13,3:00:00,8,��,2.5,17.8,89.1,0,0,7,��쓌,4.7,56,,
2015/9/13,4:00:00,9,��쐼,2.7,18,89.5,0,0,8,��,5.8,50,,
2015/9/13,5:00:00,9,��쐼,3.4,18.7,83,0,0,9,��쐼,5.8,59,,
2015/9/13,6:00:00,10,�쐼,2.7,19.3,81.6,0,0.01,9,��쐼,5.2,4,,
2015/9/13,7:00:00,9,��쐼,2.3,17.7,89.8,0,0.01,10,�쐼,4.2,3,,
2015/9/13,8:00:00,8,��,2,17.9,95.7,0,0.07,8,��,3.7,7,,
2015/9/13,9:00:00,9,��쐼,1.9,17.8,94.6,1,0.11,9,��쐼,4,41,,
2015/9/13,10:00:00,8,��,1.5,17.5,94.9,0.5,0.08,8,��,4.4,21,,
2015/9/13,11:00:00,8,��,2,17.8,94.2,0,0.13,7,��쓌,5.5,39,,
2015/9/13,12:00:00,8,��,2.4,18.2,90.9,0,0.22,9,��쐼,4.5,11,,
2015/9/13,13:00:00,9,��쐼,1.4,18.4,92.6,0,0.16,8,��,4.2,4,,
2015/9/13,14:00:00,10,�쐼,2.7,17.8,93.8,0,0.09,9,��쐼,5.5,49,,
2015/9/13,15:00:00,9,��쐼,2.8,18,92.7,0,0.08,9,��쐼,5.9,54,,
2015/9/13,16:00:00,14,�k��,0.9,17.9,96.5,0,0.04,9,��쐼,5.6,7,,
2015/9/13,17:00:00,3,���k��,0.8,17.5,98.3,1,0.02,1,�k�k��,2,10,,
2015/9/13,18:00:00,1,�k�k��,1.3,17.1,99,0.5,0,1,�k�k��,2.4,53,,
2015/9/13,19:00:00,15,�k�k��,1,16.9,99,0.5,0,15,�k�k��,2.7,58,,
2015/9/13,20:00:00,13,���k��,2.2,15.8,98.1,0,0,14,�k��,4.5,30,,
2015/9/13,21:00:00,14,�k��,1.9,15.4,97.4,0,0,14,�k��,4,24,,
2015/9/13,22:00:00,13,���k��,1.7,15.7,97.8,0,0,13,���k��,4,11,,
2015/9/13,23:00:00,12,��,2.1,15.8,98.3,0,0,14,�k��,3.3,0,,
2015/9/13,0:00:00,13,���k��,1.4,15.7,98.3,0,0,4,��,3,43,,
2015/9/14,1:00:00,15,�k�k��,0.8,15.5,97,0,0,13,���k��,3.8,13,,
2015/9/14,2:00:00,15,�k�k��,0.6,14.3,96.2,0,0,14,�k��,2.3,21,,
2015/9/14,3:00:00,13,���k��,1.9,13.3,98,0,0,14,�k��,3.2,54,,
2015/9/14,4:00:00,14,�k��,0.9,12.1,98.4,0,0,13,���k��,3.2,3,,
2015/9/14,5:00:00,13,���k��,2.5,12.2,100,0,0,13,���k��,3.2,52,,
2015/9/14,6:00:00,13,���k��,2.3,12.9,99.9,0,0.06,14,�k��,4.1,37,,
2015/9/14,7:00:00,13,���k��,2.7,15.7,92.2,0,0.25,13,���k��,5.9,19,,
2015/9/14,8:00:00,14,�k��,2.2,17.5,82.7,0,0.45,13,���k��,5.7,22,,
2015/9/14,9:00:00,15,�k�k��,2.5,20.2,68.8,0,0.63,16,�k,7,46,,
2015/9/14,10:00:00,2,�k��,2.8,20.8,59.2,0,0.76,2,�k��,7.6,39,,
2015/9/14,11:00:00,5,���쓌,3.2,21.5,63.7,0,0.84,3,���k��,5.8,8,,
2015/9/14,12:00:00,6,�쓌,4,19.9,66.7,0,0.87,6,�쓌,6.1,53,,
2015/9/14,13:00:00,6,�쓌,4.2,19.7,65.4,0,0.83,6,�쓌,6.6,50,,
2015/9/14,14:00:00,8,��,3.1,19.9,65.6,0,0.72,7,��쓌,6.1,45,,
2015/9/14,15:00:00,8,��,2.8,19.3,70.8,0,0.58,8,��,6,36,,
2015/9/14,16:00:00,8,��,2.2,18.5,67.9,0,0.41,8,��,5.3,25,,
2015/9/14,17:00:00,8,��,1.1,17,81.5,0,0.2,8,��,4.6,7,,
2015/9/14,18:00:00,16,�k,0.8,15.1,93.8,0,0.01,8,��,2.3,2,,
2015/9/14,19:00:00,15,�k�k��,0.7,15.3,90.6,0,0,14,�k��,3.7,24,,
2015/9/14,20:00:00,14,�k��,2.4,14.8,88.4,0,0,13,���k��,3.4,47,,
2015/9/14,21:00:00,14,�k��,1.7,13,93.4,0,0,14,�k��,3.7,35,,
2015/9/14,22:00:00,13,���k��,1.6,11.5,98.1,0,0,14,�k��,4,19,,
2015/9/14,23:00:00,13,���k��,3.1,12.2,94.5,0,0,13,���k��,5.3,59,,
2015/9/14,0:00:00,13,���k��,3.1,11.9,94,0,0,14,�k��,5.5,37,,
2015/9/15,1:00:00,13,���k��,3,11.7,95.2,0,0,14,�k��,5.1,57,,
2015/9/15,2:00:00,13,���k��,3,10.9,94.2,0,0,13,���k��,6.2,13,,
2015/9/15,3:00:00,13,���k��,2.5,11,95,0,0,13,���k��,4.3,32,,
2015/9/15,4:00:00,12,��,2.2,9.6,97.7,0,0,13,���k��,3.8,9,,
2015/9/15,5:00:00,14,�k��,2.8,10,96.6,0,0,13,���k��,4.5,54,,
2015/9/15,6:00:00,14,�k��,2.5,10.7,93.3,0,0.06,14,�k��,5.3,23,,
2015/9/15,7:00:00,14,�k��,2.2,13.2,86.4,0,0.24,13,���k��,4.1,18,,
2015/9/15,8:00:00,14,�k��,1.9,16.2,81.3,0,0.44,14,�k��,3.9,3,,
2015/9/15,9:00:00,5,���쓌,1.8,18.4,77.1,0,0.62,5,���쓌,2.8,50,,
2015/9/15,10:00:00,6,�쓌,2.5,18,71.6,0,0.75,6,�쓌,3.8,56,,
2015/9/15,11:00:00,6,�쓌,2.7,19.4,69.7,0,0.84,5,���쓌,4.4,54,,
2015/9/15,12:00:00,7,��쓌,2.7,19.5,67.3,0,0.85,7,��쓌,4.4,29,,
2015/9/15,13:00:00,7,��쓌,2.6,19.8,62.9,0,0.82,8,��,4.6,53,,
2015/9/15,14:00:00,8,��,2.5,18.8,62.2,0,0.45,8,��,5.6,6,,
2015/9/15,15:00:00,8,��,2.8,18.4,72.5,0,0.57,8,��,5.4,49,,
2015/9/15,16:00:00,6,�쓌,2.2,17.7,76.3,0,0.4,7,��쓌,4.1,2,,
2015/9/15,17:00:00,9,��쐼,0.9,15.5,92.2,0,0.08,7,��쓌,2.7,4,,
2015/9/15,18:00:00,7,��쓌,1.3,15.1,95.8,0,0.01,3,���k��,3.3,32,,
2015/9/15,19:00:00,13,���k��,1.4,12.8,98.8,0,0,8,��,2.5,3,,
2015/9/15,20:00:00,13,���k��,1.1,11.1,99.6,0,0,1,�k�k��,2.1,35,,
2015/9/15,21:00:00,13,���k��,2.2,12.4,100,0,0,14,�k��,3.9,59,,
2015/9/15,22:00:00,12,��,1.8,11.4,99.8,0,0,15,�k�k��,4.2,6,,
2015/9/15,23:00:00,12,��,1.5,10.3,99,0,0,13,���k��,4.2,4,,
2015/9/15,0:00:00,11,���쐼,1.9,9.5,99.1,0,0,13,���k��,2.6,0,,
2015/9/16,1:00:00,13,���k��,2.4,10.4,96.1,0,0,13,���k��,4.8,20,,
2015/9/16,2:00:00,14,�k��,2.3,10.4,94.8,0,0,14,�k��,4.9,55,,
2015/9/16,3:00:00,14,�k��,1.5,10,93.5,0,0,12,��,4.3,0,,
2015/9/16,4:00:00,11,���쐼,1.1,8.2,96.6,0,0,13,���k��,3.8,5,,
2015/9/16,5:00:00,12,��,1.6,6.8,99,0,0,12,��,2.5,52,,
2015/9/16,6:00:00,12,��,0.8,9.9,97.1,0,0.06,13,���k��,2.6,57,,
2015/9/16,7:00:00,12,��,1,13.1,86.6,0,0.23,11,���쐼,2.5,16,,
2015/9/16,8:00:00,12,��,0.7,16.3,80.6,0,0.44,11,���쐼,2.5,18,,
2015/9/16,9:00:00,10,�쐼,0.3,20.2,68.7,0,0.62,12,��,2.5,29,,
2015/9/16,10:00:00,4,��,3.2,20.3,61,0,0.75,5,���쓌,5.8,59,,
2015/9/16,11:00:00,8,��,2.9,20.1,70.8,0,0.83,6,�쓌,6,3,,
2015/9/16,12:00:00,8,��,4,20,62.7,0,0.85,8,��,6.7,58,,
2015/9/16,13:00:00,8,��,4.2,19.6,68.8,0,0.81,7,��쓌,6.5,15,,
2015/9/16,14:00:00,8,��,2.9,20.2,66.4,0,0.71,7,��쓌,5.8,27,,
2015/9/16,15:00:00,8,��,2.5,20.5,67.9,0,0.57,8,��,6.2,39,,
2015/9/16,16:00:00,9,��쐼,2.6,20.3,64.5,0,0.4,10,�쐼,6,3,,
2015/9/16,17:00:00,11,���쐼,1.2,18.1,73.8,0,0.19,8,��,3.8,3,,
2015/9/16,18:00:00,13,���k��,0.5,12.9,93.9,0,0.02,11,���쐼,2.7,17,,
2015/9/16,19:00:00,13,���k��,1.9,11.3,97.3,0,0,14,�k��,2.6,59,,
2015/9/16,20:00:00,13,���k��,3.2,12.8,93.9,0,0,12,��,4.9,54,,
2015/9/16,21:00:00,13,���k��,3.7,13.5,88.2,0,0,13,���k��,5.1,54,,
2015/9/16,22:00:00,15,�k�k��,1.2,10.7,92.3,0,0,6,�쓌,4.6,2,,
2015/9/16,23:00:00,13,���k��,1.7,10.6,97.9,0,0,12,��,3.5,41,,
2015/9/16,0:00:00,13,���k��,2.2,10,98.5,0,0,13,���k��,3.4,41,,
2015/9/17,1:00:00,12,��,3.2,10,97.9,0,0,13,���k��,4.2,32,,
2015/9/17,2:00:00,13,���k��,1.4,10.1,99.1,0,0,12,��,3.5,9,,
2015/9/17,3:00:00,14,�k��,1.7,9.5,96.1,0,0,14,�k��,3.5,29,,